Regional Weather Roundup
Issued by NWS Bismarck, ND

Home | Current Version | Previous Version | Text Only | Print | Product List | Glossary On
Versions: 1 2 3 4 5 6 7 8 9 10 11 12 13 14 15 16 17 18 19 20 21 22 23 24 25 26 27 28 29 30 31 32 33 34 35 36 37 38 39 40 41 42 43 44 45 46 47 48 49 50
000
ASUS43 KBIS 092210
RWRBIS

NWR BROADCAST TEXT
NATIONAL WEATHER SERVICE BISMARCK ND
400 PM CST FRI DEC 09 2016

NOTE: "FAIR" INDICATES FEW OR NO CLOUDS BELOW 12,000 FEET WITH NO
SIGNIFICANT WEATHER AND/OR OBSTRUCTIONS TO VISIBILITY.


CITY           SKY/WX    TMP DP  RH WIND       PRES   REMARKS
WILLISTON      PTCLDY    -3 -12  65 NE6       30.53F WCI -15
MINOT          CLEAR     -8 -14  74 W10       30.53F WCI -26
MINOT AFB      CLEAR    -12 -18  74 NW10      30.53F WCI -31
BISMARCK       MOCLDY    -1  -7  75 W7        30.54F WCI -14
DICKINSON      CLEAR     -5 -10  79 W3        30.41
GARRISON         N/A     -6 -13  71 NW8       30.51S WCI -21
HETTINGER ARPT CLOUDY    -3  -8  79 N3        30.43S
JAMESTOWN      CLEAR     -4 -10  75 NW14      30.52R WCI -24
CARRINGTON     FAIR      -8 -13  77 NW13      30.54S WCI -28
HAZEN          CLOUDY    -8 -13  77 N7        30.55F WCI -22
RUGBY            N/A    -11 -15  84 NW12      30.54R WCI -31
STANLEY        FAIR      -9 -13  84 NW9       30.49F WCI -27
TIOGA          FAIR      -8 -11  84 N6        30.49F WCI -21
WATFORD CITY   FAIR      -4  -9  77 CALM      30.51S
$$

CITY           SKY/WX    TMP DP  RH WIND       PRES   REMARKS
GRAND FORKS    PTCLDY     0  -9  65 NW7       30.56F WCI -13
GRAND FORKS AF PTCLDY     0 -10  62 NW10      30.56S WCI -17
DEVILS LAKE    PTCLDY    -8 -13  78 W12       30.53R WCI -27
FARGO          CLEAR      6  -3  66 NW10      30.55F WCI  -9
CANDO          CLOUDY    -6 N/A N/A NW8       30.55R WCI -21
CAVALIER         N/A      0  -6  78 NW7       30.56F WCI -13
GRAFTON        FAIR      -4 -11  71 NW8       30.59S WCI -19
GWINNER        FAIR       5   0  78 NW12      30.54S WCI -11
LANGDON        CLOUDY    -6 -11  77 NW9       30.48S WCI -22
ROLLA          MOCLDY    -9 -15  77 NW10      30.49R WCI -28
WALHALLA         N/A     -2  -2 100 NW8       30.56F WCI -17
$$

CITY           SKY/WX    TMP DP  RH WIND       PRES   REMARKS
ABERDEEN       CLOUDY     8  -2  63 N7        30.54S WCI  -3
MOBRIDGE       CLOUDY     1  -6  72 N6        30.49S WCI -10
BUFFALO          N/A      4  -4  69 E9        30.28S WCI -10
RAPID CITY     FLURRIES   3  -3  76 N8        30.34S WCI -10
GLASGOW        CLOUDY     0  -5  79 SE7       30.43F WCI -13
SIDNEY         CLEAR      2  -8  63 E5        30.53S WCI  -8
WOLF POINT     CLEAR      2  -8  63 E9        30.51F WCI -13
GLENDIVE       CLOUDY    -5  -9  83 E7        30.45F WCI -19
MILES CITY     LGT SNOW   4  -3  73 E8        30.38S WCI  -9
BAKER          CLOUDY     0  -6  76 E10       30.37F WCI -16
$$

CITY           SKY/WX    TMP DP  RH WIND       PRES   REMARKS
BILLINGS       CLOUDY     5  -1  76 NE6       30.21F WCI  -6
GREAT FALLS    CLOUDY     1  -7  68 E6        30.16F WCI -10
REGINA         CRYSTALS  -8 -13  77 W7        30.51F WCI -22
ESTEVAN        PTCLDY   -13 -17  84 W6        30.52F WCI -27
$$




USA.gov is the U.S. government's official web portal to all federal, state and local government web resources and services.